Time,TemperatureF,DewpointF,PressureIn,WindDirection,WindDirectionDegrees,WindSpeedMPH,WindSpeedGustMPH,Humidity,HourlyPrecipIn,Conditions,Clouds,dailyrainin,SoftwareType,DateUTC
2013-11-18 00:02:00,22.9,11.0,25.84,WNW,292,6.3,7.0,58,0.00,,,0.00,Rainwise IP-100,2013-11-18 07:02:00,
2013-11-18 00:07:00,23.4,11.0,25.84,WNW,292,5.6,6.0,58,0.00,,,0.00,Rainwise IP-100,2013-11-18 07:07:00,
2013-11-18 00:12:00,23.0,11.0,25.84,NNW,337,4.9,7.0,58,0.00,,,0.00,Rainwise IP-100,2013-11-18 07:12:00,
2013-11-18 00:17:00,22.7,11.0,25.83,NW,315,2.8,7.0,58,0.00,,,0.00,Rainwise IP-100,2013-11-18 07:17:00,
2013-11-18 00:22:00,23.2,11.0,25.83,WNW,292,4.4,5.0,58,0.00,,,0.00,Rainwise IP-100,2013-11-18 07:22:00,
2013-11-18 00:27:00,23.8,14.0,25.83,WNW,292,4.9,7.0,58,0.00,,,0.00,Rainwise IP-100,2013-11-18 07:27:00,
2013-11-18 00:32:00,23.9,14.0,25.83,West,270,4.7,6.0,58,0.00,,,0.00,Rainwise IP-100,2013-11-18 07:32:00,
2013-11-18 00:37:00,23.9,11.0,25.83,West,270,4.9,5.0,57,0.00,,,0.00,Rainwise IP-100,2013-11-18 07:37:00,
2013-11-18 00:42:00,23.6,11.0,25.82,West,270,2.8,5.0,57,0.00,,,0.00,Rainwise IP-100,2013-11-18 07:42:00,
2013-11-18 00:47:00,23.4,11.0,25.83,WNW,292,2.8,4.0,57,0.00,,,0.00,Rainwise IP-100,2013-11-18 07:47:00,
2013-11-18 00:52:00,23.2,11.0,25.83,WNW,292,3.0,3.0,57,0.00,,,0.00,Rainwise IP-100,2013-11-18 07:52:00,
2013-11-18 00:57:00,22.6,11.0,25.82,West,270,4.9,5.0,57,0.00,,,0.00,Rainwise IP-100,2013-11-18 07:57:00,
2013-11-18 01:02:00,22.0,11.0,25.83,WNW,292,3.7,5.0,58,0.00,,,0.00,Rainwise IP-100,2013-11-18 08:02:00,
2013-11-18 01:07:00,22.0,11.0,25.84,NNW,337,5.6,6.0,59,0.00,,,0.00,Rainwise IP-100,2013-11-18 08:07:00,
2013-11-18 01:12:00,21.2,8.0,25.84,NNW,337,5.8,7.0,59,0.00,,,0.00,Rainwise IP-100,2013-11-18 08:12:00,
2013-11-18 01:17:00,21.6,11.0,25.83,WNW,292,4.9,6.0,60,0.00,,,0.00,Rainwise IP-100,2013-11-18 08:17:00,
2013-11-18 01:22:00,23.7,14.0,25.83,WNW,292,4.9,6.0,58,0.00,,,0.00,Rainwise IP-100,2013-11-18 08:22:00,
2013-11-18 01:27:00,24.6,14.0,25.83,WNW,292,4.2,6.0,56,0.00,,,0.00,Rainwise IP-100,2013-11-18 08:27:00,
2013-11-18 01:32:00,24.9,14.0,25.83,West,270,2.3,5.0,55,0.00,,,0.00,Rainwise IP-100,2013-11-18 08:32:00,
2013-11-18 01:37:00,25.5,14.0,25.83,West,270,0.0,3.0,54,0.00,,,0.00,Rainwise IP-100,2013-11-18 08:37:00,
2013-11-18 01:42:00,24.3,11.0,25.83,NE,45,3.7,5.0,54,0.00,,,0.00,Rainwise IP-100,2013-11-18 08:42:00,
2013-11-18 01:47:00,23.1,11.0,25.83,WNW,292,3.0,3.0,55,0.00,,,0.00,Rainwise IP-100,2013-11-18 08:47:00,
2013-11-18 01:52:00,24.2,11.0,25.83,WNW,292,2.8,4.0,56,0.00,,,0.00,Rainwise IP-100,2013-11-18 08:52:00,
2013-11-18 01:57:00,25.1,14.0,25.83,WNW,292,3.7,4.0,54,0.00,,,0.00,Rainwise IP-100,2013-11-18 08:57:00,
2013-11-18 02:02:00,25.2,14.0,25.83,NNW,337,4.2,4.2,54,0.00,,,0.00,Rainwise IP-100,2013-11-18 09:02:00,
2013-11-18 02:07:00,24.6,14.0,25.84,NNW,337,3.0,4.0,54,0.00,,,0.00,Rainwise IP-100,2013-11-18 09:07:00,
2013-11-18 02:12:00,24.0,11.0,25.83,West,270,3.0,4.0,54,0.00,,,0.00,Rainwise IP-100,2013-11-18 09:12:00,
2013-11-18 02:17:00,23.9,11.0,25.83,West,270,3.3,3.3,55,0.00,,,0.00,Rainwise IP-100,2013-11-18 09:17:00,
2013-11-18 02:22:00,23.9,11.0,25.83,NNW,337,4.4,4.4,55,0.00,,,0.00,Rainwise IP-100,2013-11-18 09:22:00,
2013-11-18 02:27:00,23.7,11.0,25.84,NNW,337,6.1,6.1,56,0.00,,,0.00,Rainwise IP-100,2013-11-18 09:27:00,
2013-11-18 02:32:00,22.9,11.0,25.84,NNW,337,3.7,7.0,56,0.00,,,0.00,Rainwise IP-100,2013-11-18 09:32:00,
2013-11-18 02:37:00,22.5,11.0,25.85,NE,45,4.7,6.0,57,0.00,,,0.00,Rainwise IP-100,2013-11-18 09:37:00,
2013-11-18 02:42:00,23.2,11.0,25.84,NNW,337,4.2,7.0,57,0.00,,,0.00,Rainwise IP-100,2013-11-18 09:42:00,
2013-11-18 02:47:00,24.5,14.0,25.84,WNW,292,1.4,4.0,56,0.00,,,0.00,Rainwise IP-100,2013-11-18 09:47:00,
2013-11-18 02:52:00,25.7,14.0,25.84,North,360,4.7,4.7,55,0.00,,,0.00,Rainwise IP-100,2013-11-18 09:52:00,
2013-11-18 02:57:00,24.9,14.0,25.85,NNE,22,2.3,11.0,54,0.00,,,0.00,Rainwise IP-100,2013-11-18 09:57:00,
2013-11-18 03:02:00,22.8,8.0,25.84,North,360,3.3,6.0,54,0.00,,,0.00,Rainwise IP-100,2013-11-18 10:02:00,
2013-11-18 03:07:00,22.8,11.0,25.84,North,360,0.0,4.0,56,0.00,,,0.00,Rainwise IP-100,2013-11-18 10:07:00,
2013-11-18 03:12:00,24.3,11.0,25.84,North,360,0.0,2.0,55,0.00,,,0.00,Rainwise IP-100,2013-11-18 10:12:00,
2013-11-18 03:17:00,24.5,14.0,25.84,North,360,0.0,1.0,54,0.00,,,0.00,Rainwise IP-100,2013-11-18 10:17:00,
2013-11-18 03:22:00,24.5,14.0,25.84,North,360,0.0,0.0,54,0.00,,,0.00,Rainwise IP-100,2013-11-18 10:22:00,
2013-11-18 03:27:00,24.2,11.0,25.84,NNW,337,0.0,0.0,54,0.00,,,0.00,Rainwise IP-100,2013-11-18 10:27:00,
2013-11-18 03:32:00,23.0,8.0,25.85,NNW,337,0.0,0.0,54,0.00,,,0.00,Rainwise IP-100,2013-11-18 10:32:00,
2013-11-18 03:37:00,22.5,11.0,25.84,NNW,337,0.0,0.0,56,0.00,,,0.00,Rainwise IP-100,2013-11-18 10:37:00,
2013-11-18 03:42:00,22.5,11.0,25.84,NNW,337,0.0,0.0,56,0.00,,,0.00,Rainwise IP-100,2013-11-18 10:42:00,
2013-11-18 03:47:00,22.3,11.0,25.84,NNW,337,0.0,0.0,57,0.00,,,0.00,Rainwise IP-100,2013-11-18 10:47:00,
2013-11-18 03:52:00,21.9,11.0,25.84,NE,45,0.0,4.0,57,0.00,,,0.00,Rainwise IP-100,2013-11-18 10:52:00,
2013-11-18 03:57:00,21.8,11.0,25.84,WSW,247,4.9,4.9,57,0.00,,,0.00,Rainwise IP-100,2013-11-18 10:57:00,
2013-11-18 04:02:00,22.0,11.0,25.84,WSW,247,2.3,5.0,58,0.00,,,0.00,Rainwise IP-100,2013-11-18 11:02:00,
2013-11-18 04:07:00,22.1,11.0,25.84,WSW,247,0.0,2.0,57,0.00,,,0.00,Rainwise IP-100,2013-11-18 11:07:00,
2013-11-18 04:12:00,21.8,11.0,25.85,NNW,337,0.0,3.0,57,0.00,,,0.00,Rainwise IP-100,2013-11-18 11:12:00,
2013-11-18 04:17:00,20.8,8.0,25.85,NNW,337,2.3,2.3,58,0.00,,,0.00,Rainwise IP-100,2013-11-18 11:17:00,
2013-11-18 04:22:00,21.1,8.0,25.84,NNW,337,4.2,4.2,59,0.00,,,0.00,Rainwise IP-100,2013-11-18 11:22:00,
2013-11-18 04:27:00,22.2,11.0,25.84,WNW,292,2.8,4.0,59,0.00,,,0.00,Rainwise IP-100,2013-11-18 11:27:00,
2013-11-18 04:32:00,22.4,11.0,25.84,WNW,292,2.8,4.0,58,0.00,,,0.00,Rainwise IP-100,2013-11-18 11:32:00,
2013-11-18 04:37:00,22.6,11.0,25.84,WNW,292,2.8,3.0,57,0.00,,,0.00,Rainwise IP-100,2013-11-18 11:37:00,
2013-11-18 04:42:00,22.9,11.0,25.84,WNW,292,1.4,3.0,58,0.00,,,0.00,Rainwise IP-100,2013-11-18 11:42:00,
2013-11-18 04:47:00,22.6,11.0,25.84,WNW,292,1.6,2.0,58,0.00,,,0.00,Rainwise IP-100,2013-11-18 11:47:00,
2013-11-18 04:52:00,22.7,11.0,25.84,West,270,4.2,4.2,58,0.00,,,0.00,Rainwise IP-100,2013-11-18 11:52:00,
2013-11-18 04:57:00,22.8,11.0,25.84,West,270,3.5,4.0,58,0.00,,,0.00,Rainwise IP-100,2013-11-18 11:57:00,
2013-11-18 05:02:00,22.5,11.0,25.84,West,270,1.9,3.0,59,0.00,,,0.00,Rainwise IP-100,2013-11-18 12:02:00,
2013-11-18 05:07:00,22.4,11.0,25.84,West,270,0.0,2.0,59,0.00,,,0.00,Rainwise IP-100,2013-11-18 12:07:00,
2013-11-18 05:12:00,21.1,11.0,25.84,NNE,22,4.0,6.0,60,0.00,,,0.00,Rainwise IP-100,2013-11-18 12:12:00,
2013-11-18 05:17:00,19.3,11.0,25.84,NNE,22,4.2,6.0,60,0.00,,,0.00,Rainwise IP-100,2013-11-18 12:17:00,
2013-11-18 05:22:00,19.2,11.0,25.84,NNE,22,0.0,4.0,62,0.00,,,0.00,Rainwise IP-100,2013-11-18 12:22:00,
2013-11-18 05:27:00,20.3,11.0,25.84,NE,45,3.7,4.0,62,0.00,,,0.00,Rainwise IP-100,2013-11-18 12:27:00,
2013-11-18 05:32:00,20.5,11.0,25.84,NNE,22,5.1,5.1,61,0.00,,,0.00,Rainwise IP-100,2013-11-18 12:32:00,
2013-11-18 05:37:00,20.2,11.0,25.84,NNE,22,3.3,6.0,61,0.00,,,0.00,Rainwise IP-100,2013-11-18 12:37:00,
2013-11-18 05:42:00,21.1,11.0,25.84,NNE,22,0.0,5.0,61,0.00,,,0.00,Rainwise IP-100,2013-11-18 12:42:00,
2013-11-18 05:47:00,22.4,11.0,25.84,East,90,0.0,1.0,60,0.00,,,0.00,Rainwise IP-100,2013-11-18 12:47:00,
2013-11-18 05:52:00,23.1,11.0,25.84,East,90,1.2,1.2,59,0.00,,,0.00,Rainwise IP-100,2013-11-18 12:52:00,
2013-11-18 05:57:00,23.4,11.0,25.84,East,90,0.0,1.0,57,0.00,,,0.00,Rainwise IP-100,2013-11-18 12:57:00,
2013-11-18 06:02:00,22.9,11.0,25.84,East,90,0.0,0.0,57,0.00,,,0.00,Rainwise IP-100,2013-11-18 13:02:00,
2013-11-18 06:07:00,22.1,11.0,25.84,East,90,0.0,0.0,57,0.00,,,0.00,Rainwise IP-100,2013-11-18 13:07:00,
2013-11-18 06:12:00,22.1,11.0,25.84,East,90,0.0,0.0,58,0.00,,,0.00,Rainwise IP-100,2013-11-18 13:12:00,
2013-11-18 06:17:00,22.3,11.0,25.84,SSW,202,0.0,2.0,59,0.00,,,0.00,Rainwise IP-100,2013-11-18 13:17:00,
2013-11-18 06:22:00,21.9,11.0,25.85,NNE,22,4.2,4.2,58,0.00,,,0.00,Rainwise IP-100,2013-11-18 13:22:00,
2013-11-18 06:27:00,21.8,11.0,25.86,NE,45,2.6,4.0,59,0.00,,,0.00,Rainwise IP-100,2013-11-18 13:27:00,
2013-11-18 06:32:00,22.2,11.0,25.85,NE,45,0.0,2.0,58,0.00,,,0.00,Rainwise IP-100,2013-11-18 13:32:00,
2013-11-18 06:37:00,22.3,11.0,25.85,NE,45,0.0,0.0,58,0.00,,,0.00,Rainwise IP-100,2013-11-18 13:37:00,
2013-11-18 06:42:00,23.2,11.0,25.85,NE,45,0.0,0.0,57,0.00,,,0.00,Rainwise IP-100,2013-11-18 13:42:00,
2013-11-18 06:47:00,23.9,11.0,25.85,NE,45,0.0,0.0,56,0.00,,,0.00,Rainwise IP-100,2013-11-18 13:47:00,
2013-11-18 06:52:00,23.6,11.0,25.86,NNE,22,0.0,0.0,55,0.00,,,0.00,Rainwise IP-100,2013-11-18 13:52:00,
2013-11-18 06:57:00,22.8,11.0,25.86,NNW,337,0.0,2.0,56,0.00,,,0.00,Rainwise IP-100,2013-11-18 13:57:00,
2013-11-18 07:02:00,22.0,11.0,25.86,NNW,337,2.6,2.6,57,0.00,,,0.00,Rainwise IP-100,2013-11-18 14:02:00,
2013-11-18 07:07:00,22.1,11.0,25.86,NNW,337,3.5,3.5,58,0.00,,,0.00,Rainwise IP-100,2013-11-18 14:07:00,
2013-11-18 07:12:00,23.0,11.0,25.86,NNW,337,0.0,4.0,58,0.00,,,0.00,Rainwise IP-100,2013-11-18 14:12:00,
2013-11-18 07:17:00,23.7,11.0,25.86,NNW,337,0.0,0.0,57,0.00,,,0.00,Rainwise IP-100,2013-11-18 14:17:00,
2013-11-18 07:22:00,24.6,14.0,25.86,WSW,247,1.9,0.0,57,0.00,,,0.00,Rainwise IP-100,2013-11-18 14:22:00,
2013-11-18 07:27:00,25.6,14.0,25.87,WSW,247,2.1,2.1,54,0.00,,,0.00,Rainwise IP-100,2013-11-18 14:27:00,
2013-11-18 07:32:00,26.5,14.0,25.87,SW,225,2.3,4.0,52,0.00,,,0.00,Rainwise IP-100,2013-11-18 14:32:00,
2013-11-18 07:37:00,27.1,14.0,25.87,SSW,202,1.2,4.0,50,0.00,,,0.00,Rainwise IP-100,2013-11-18 14:37:00,
2013-11-18 07:42:00,27.7,14.0,25.88,SSW,202,0.0,3.0,50,0.00,,,0.00,Rainwise IP-100,2013-11-18 14:42:00,
2013-11-18 07:47:00,28.7,14.0,25.88,SSW,202,0.0,0.0,50,0.00,,,0.00,Rainwise IP-100,2013-11-18 14:47:00,
2013-11-18 07:52:00,29.8,14.0,25.88,SSW,202,0.0,0.0,49,0.00,,,0.00,Rainwise IP-100,2013-11-18 14:52:00,
2013-11-18 07:57:00,30.8,14.0,25.88,SSW,202,2.8,2.8,48,0.00,,,0.00,Rainwise IP-100,2013-11-18 14:57:00,
2013-11-18 08:02:00,31.6,14.0,25.88,South,180,4.4,6.0,46,0.00,,,0.00,Rainwise IP-100,2013-11-18 15:02:00,
2013-11-18 08:07:00,32.2,14.0,25.88,South,180,4.9,7.0,44,0.00,,,0.00,Rainwise IP-100,2013-11-18 15:07:00,
2013-11-18 08:12:00,33.5,16.0,25.88,SSW,202,4.2,8.0,43,0.00,,,0.00,Rainwise IP-100,2013-11-18 15:12:00,
2013-11-18 08:17:00,34.7,14.0,25.88,SSE,157,7.2,7.2,41,0.00,,,0.00,Rainwise IP-100,2013-11-18 15:17:00,
2013-11-18 08:22:00,36.5,16.0,25.88,South,180,14.2,14.2,39,0.00,,,0.00,Rainwise IP-100,2013-11-18 15:22:00,
2013-11-18 08:27:00,38.4,16.0,25.88,South,180,7.0,14.0,37,0.00,,,0.00,Rainwise IP-100,2013-11-18 15:27:00,
2013-11-18 08:32:00,39.5,16.0,25.87,South,180,14.2,14.2,35,0.00,,,0.00,Rainwise IP-100,2013-11-18 15:32:00,
2013-11-18 08:37:00,40.1,14.0,25.87,South,180,11.0,14.0,33,0.00,,,0.00,Rainwise IP-100,2013-11-18 15:37:00,
2013-11-18 08:42:00,40.8,14.0,25.87,SSW,202,6.5,14.0,32,0.00,,,0.00,Rainwise IP-100,2013-11-18 15:42:00,
2013-11-18 08:47:00,41.7,14.0,25.88,SSW,202,10.5,15.0,31,0.00,,,0.00,Rainwise IP-100,2013-11-18 15:47:00,
2013-11-18 08:51:00,42.5,14.0,25.88,SSW,202,5.1,16.0,30,0.00,,,0.00,Rainwise IP-100,2013-11-18 15:51:00,
2013-11-18 08:56:00,43.1,14.0,25.88,SSE,157,5.6,16.0,29,0.00,,,0.00,Rainwise IP-100,2013-11-18 15:56:00,
2013-11-18 09:01:00,43.4,14.0,25.88,SSE,157,10.0,17.0,28,0.00,,,0.00,Rainwise IP-100,2013-11-18 16:01:00,
2013-11-18 09:06:00,43.6,14.0,25.88,SSE,157,8.2,17.0,28,0.00,,,0.00,Rainwise IP-100,2013-11-18 16:06:00,
2013-11-18 09:11:00,43.7,14.0,25.88,SSW,202,16.1,19.0,28,0.00,,,0.00,Rainwise IP-100,2013-11-18 16:11:00,
2013-11-18 09:16:00,43.7,14.0,25.88,SSW,202,11.7,19.0,28,0.00,,,0.00,Rainwise IP-100,2013-11-18 16:16:00,
2013-11-18 09:21:00,44.0,14.0,25.88,SSW,202,8.2,18.0,28,0.00,,,0.00,Rainwise IP-100,2013-11-18 16:21:00,
2013-11-18 09:26:00,44.3,14.0,25.89,SSW,202,12.8,14.0,28,0.00,,,0.00,Rainwise IP-100,2013-11-18 16:26:00,
2013-11-18 09:31:00,44.5,14.0,25.88,SSW,202,11.0,16.0,27,0.00,,,0.00,Rainwise IP-100,2013-11-18 16:31:00,
2013-11-18 09:36:00,44.5,14.0,25.88,SSW,202,5.8,16.0,27,0.00,,,0.00,Rainwise IP-100,2013-11-18 16:36:00,
2013-11-18 09:41:00,44.7,14.0,25.88,South,180,6.8,14.0,28,0.00,,,0.00,Rainwise IP-100,2013-11-18 16:41:00,
2013-11-18 09:46:00,44.9,14.0,25.88,SSW,202,13.5,16.0,27,0.00,,,0.00,Rainwise IP-100,2013-11-18 16:46:00,
2013-11-18 09:51:00,44.9,14.0,25.89,SSW,202,7.0,16.0,27,0.00,,,0.00,Rainwise IP-100,2013-11-18 16:51:00,
2013-11-18 09:56:00,45.0,14.0,25.88,SSW,202,11.9,17.0,28,0.00,,,0.00,Rainwise IP-100,2013-11-18 16:56:00,
2013-11-18 10:01:00,45.2,14.0,25.88,SSW,202,7.9,15.0,28,0.00,,,0.00,Rainwise IP-100,2013-11-18 17:01:00,
2013-11-18 10:06:00,45.4,14.0,25.88,SSE,157,8.6,15.0,28,0.00,,,0.00,Rainwise IP-100,2013-11-18 17:06:00,
2013-11-18 10:11:00,45.7,16.0,25.88,SSW,202,11.2,17.0,28,0.00,,,0.00,Rainwise IP-100,2013-11-18 17:11:00,
2013-11-18 10:16:00,46.0,16.0,25.88,SSW,202,10.7,17.0,28,0.00,,,0.00,Rainwise IP-100,2013-11-18 17:16:00,
2013-11-18 10:21:00,46.4,16.0,25.88,WSW,247,13.8,18.0,28,0.00,,,0.00,Rainwise IP-100,2013-11-18 17:21:00,
2013-11-18 10:26:00,46.8,16.0,25.88,SSW,202,9.3,20.0,29,0.00,,,0.00,Rainwise IP-100,2013-11-18 17:26:00,
2013-11-18 10:31:00,47.1,16.0,25.89,SW,225,8.6,19.0,29,0.00,,,0.00,Rainwise IP-100,2013-11-18 17:31:00,
2013-11-18 10:36:00,47.4,18.0,25.88,SW,225,12.1,16.0,30,0.00,,,0.00,Rainwise IP-100,2013-11-18 17:36:00,
2013-11-18 10:41:00,47.4,18.0,25.88,SW,225,13.5,18.0,31,0.00,,,0.00,Rainwise IP-100,2013-11-18 17:41:00,
2013-11-18 10:46:00,47.6,18.0,25.88,SSW,202,7.0,17.0,31,0.00,,,0.00,Rainwise IP-100,2013-11-18 17:46:00,
2013-11-18 10:51:00,47.9,21.0,25.88,SSW,202,11.9,18.0,31,0.00,,,0.00,Rainwise IP-100,2013-11-18 17:51:00,
2013-11-18 10:56:00,48.0,21.0,25.87,South,180,13.3,19.0,32,0.00,,,0.00,Rainwise IP-100,2013-11-18 17:56:00,
2013-11-18 11:01:00,48.2,21.0,25.87,SSW,202,10.3,18.0,31,0.00,,,0.00,Rainwise IP-100,2013-11-18 18:01:00,
2013-11-18 11:06:00,48.8,21.0,25.87,SSE,157,12.1,15.0,31,0.00,,,0.00,Rainwise IP-100,2013-11-18 18:06:00,
2013-11-18 11:11:00,48.9,21.0,25.87,SSW,202,7.5,20.0,31,0.00,,,0.00,Rainwise IP-100,2013-11-18 18:11:00,
2013-11-18 11:16:00,48.8,21.0,25.87,SSW,202,5.1,19.0,31,0.00,,,0.00,Rainwise IP-100,2013-11-18 18:16:00,
2013-11-18 11:21:00,49.0,21.0,25.86,SSW,202,13.5,17.0,31,0.00,,,0.00,Rainwise IP-100,2013-11-18 18:21:00,
2013-11-18 11:26:00,49.3,21.0,25.86,SSW,202,11.4,15.0,31,0.00,,,0.00,Rainwise IP-100,2013-11-18 18:26:00,
2013-11-18 11:31:00,49.5,21.0,25.86,SSW,202,11.4,18.0,30,0.00,,,0.00,Rainwise IP-100,2013-11-18 18:31:00,
2013-11-18 11:36:00,49.4,21.0,25.86,SSW,202,8.4,16.0,30,0.00,,,0.00,Rainwise IP-100,2013-11-18 18:36:00,
2013-11-18 11:41:00,49.5,21.0,25.86,SSW,202,14.5,19.0,31,0.00,,,0.00,Rainwise IP-100,2013-11-18 18:41:00,
2013-11-18 11:46:00,49.7,21.0,25.85,SSW,202,8.9,17.0,30,0.00,,,0.00,Rainwise IP-100,2013-11-18 18:46:00,
2013-11-18 11:51:00,50.0,21.0,25.85,SSW,202,14.9,18.0,30,0.00,,,0.00,Rainwise IP-100,2013-11-18 18:51:00,
2013-11-18 11:56:00,50.3,21.0,25.84,SSW,202,7.9,15.0,30,0.00,,,0.00,Rainwise IP-100,2013-11-18 18:56:00,
2013-11-18 12:01:00,50.6,21.0,25.84,SSW,202,4.0,17.0,30,0.00,,,0.00,Rainwise IP-100,2013-11-18 19:01:00,
2013-11-18 12:06:00,50.7,21.0,25.84,SSW,202,11.4,17.0,30,0.00,,,0.00,Rainwise IP-100,2013-11-18 19:06:00,
2013-11-18 12:11:00,50.7,21.0,25.84,SSW,202,8.6,17.0,29,0.00,,,0.00,Rainwise IP-100,2013-11-18 19:11:00,
2013-11-18 12:16:00,50.8,21.0,25.83,SSW,202,7.9,18.0,29,0.00,,,0.00,Rainwise IP-100,2013-11-18 19:16:00,
2013-11-18 12:21:00,51.1,21.0,25.83,SSW,202,10.5,15.0,29,0.00,,,0.00,Rainwise IP-100,2013-11-18 19:21:00,
2013-11-18 12:26:00,51.8,21.0,25.84,SSW,202,8.4,18.0,29,0.00,,,0.00,Rainwise IP-100,2013-11-18 19:26:00,
2013-11-18 12:31:00,51.6,21.0,25.83,SW,225,11.4,16.0,29,0.00,,,0.00,Rainwise IP-100,2013-11-18 19:31:00,
2013-11-18 12:36:00,51.4,21.0,25.83,WSW,247,15.6,15.6,29,0.00,,,0.00,Rainwise IP-100,2013-11-18 19:36:00,
2013-11-18 12:41:00,51.8,21.0,25.83,SSW,202,11.0,19.0,29,0.00,,,0.00,Rainwise IP-100,2013-11-18 19:41:00,
2013-11-18 12:46:00,52.0,21.0,25.82,SSW,202,9.3,17.0,29,0.00,,,0.00,Rainwise IP-100,2013-11-18 19:46:00,
2013-11-18 12:51:00,52.1,21.0,25.82,WSW,247,15.9,16.0,29,0.00,,,0.00,Rainwise IP-100,2013-11-18 19:51:00,
2013-11-18 12:56:00,52.2,21.0,25.82,WSW,247,8.2,18.0,29,0.00,,,0.00,Rainwise IP-100,2013-11-18 19:56:00,
2013-11-18 13:01:00,52.4,21.0,25.82,SSW,202,10.0,14.0,29,0.00,,,0.00,Rainwise IP-100,2013-11-18 20:01:00,
2013-11-18 13:06:00,52.6,23.0,25.82,SSW,202,7.5,16.0,29,0.00,,,0.00,Rainwise IP-100,2013-11-18 20:06:00,
2013-11-18 13:11:00,53.0,23.0,25.81,SSW,202,7.7,15.0,29,0.00,,,0.00,Rainwise IP-100,2013-11-18 20:11:00,
2013-11-18 13:16:00,53.2,21.0,25.82,SSW,202,10.5,18.0,28,0.00,,,0.00,Rainwise IP-100,2013-11-18 20:16:00,
2013-11-18 13:21:00,53.1,21.0,25.81,SSW,202,10.3,18.0,28,0.00,,,0.00,Rainwise IP-100,2013-11-18 20:21:00,
2013-11-18 13:26:00,53.4,21.0,25.81,South,180,14.9,15.0,28,0.00,,,0.00,Rainwise IP-100,2013-11-18 20:26:00,
2013-11-18 13:31:00,53.8,21.0,25.81,SSW,202,8.2,17.0,28,0.00,,,0.00,Rainwise IP-100,2013-11-18 20:31:00,
2013-11-18 13:36:00,54.0,23.0,25.80,SW,225,10.3,14.0,28,0.00,,,0.00,Rainwise IP-100,2013-11-18 20:36:00,
2013-11-18 13:41:00,54.2,23.0,25.80,SSW,202,4.0,14.0,28,0.00,,,0.00,Rainwise IP-100,2013-11-18 20:41:00,
2013-11-18 13:46:00,54.3,23.0,25.80,WSW,247,5.4,14.0,28,0.00,,,0.00,Rainwise IP-100,2013-11-18 20:46:00,
2013-11-18 13:51:00,54.3,23.0,25.79,SW,225,5.4,12.0,28,0.00,,,0.00,Rainwise IP-100,2013-11-18 20:51:00,
2013-11-18 13:56:00,54.6,23.0,25.79,SSW,202,8.9,13.0,28,0.00,,,0.00,Rainwise IP-100,2013-11-18 20:56:00,
2013-11-18 14:01:00,54.7,23.0,25.79,SSW,202,12.6,13.0,28,0.00,,,0.00,Rainwise IP-100,2013-11-18 21:01:00,
2013-11-18 14:06:00,54.7,23.0,25.79,SSE,157,7.5,14.0,28,0.00,,,0.00,Rainwise IP-100,2013-11-18 21:06:00,
2013-11-18 14:11:00,54.8,23.0,25.79,SSW,202,9.3,14.0,27,0.00,,,0.00,Rainwise IP-100,2013-11-18 21:11:00,
2013-11-18 14:16:00,55.0,23.0,25.79,SSW,202,8.9,15.0,27,0.00,,,0.00,Rainwise IP-100,2013-11-18 21:16:00,
2013-11-18 14:21:00,55.2,21.0,25.79,South,180,10.7,12.0,26,0.00,,,0.00,Rainwise IP-100,2013-11-18 21:21:00,
2013-11-18 14:26:00,55.4,21.0,25.79,South,180,7.7,13.0,26,0.00,,,0.00,Rainwise IP-100,2013-11-18 21:26:00,
2013-11-18 14:31:00,55.5,21.0,25.79,SSE,157,7.9,14.0,25,0.00,,,0.00,Rainwise IP-100,2013-11-18 21:31:00,
2013-11-18 14:36:00,55.5,21.0,25.79,South,180,7.7,13.0,25,0.00,,,0.00,Rainwise IP-100,2013-11-18 21:36:00,
2013-11-18 14:41:00,55.5,21.0,25.78,South,180,10.3,14.0,25,0.00,,,0.00,Rainwise IP-100,2013-11-18 21:41:00,
2013-11-18 14:46:00,55.5,21.0,25.79,SSW,202,8.2,13.0,25,0.00,,,0.00,Rainwise IP-100,2013-11-18 21:46:00,
2013-11-18 14:51:00,55.6,21.0,25.79,SSW,202,11.0,14.0,24,0.00,,,0.00,Rainwise IP-100,2013-11-18 21:51:00,
2013-11-18 14:56:00,55.8,21.0,25.78,SSW,202,9.6,14.0,24,0.00,,,0.00,Rainwise IP-100,2013-11-18 21:56:00,
2013-11-18 15:01:00,55.7,21.0,25.78,WSW,247,9.3,13.0,24,0.00,,,0.00,Rainwise IP-100,2013-11-18 22:01:00,
2013-11-18 15:06:00,55.5,21.0,25.79,South,180,6.3,16.0,24,0.00,,,0.00,Rainwise IP-100,2013-11-18 22:06:00,
2013-11-18 15:11:00,55.5,21.0,25.78,SSW,202,8.4,13.0,24,0.00,,,0.00,Rainwise IP-100,2013-11-18 22:11:00,
2013-11-18 15:16:00,55.5,21.0,25.79,SSW,202,4.4,13.0,24,0.00,,,0.00,Rainwise IP-100,2013-11-18 22:16:00,
2013-11-18 15:21:00,55.5,21.0,25.79,SSW,202,2.3,12.0,24,0.00,,,0.00,Rainwise IP-100,2013-11-18 22:21:00,
2013-11-18 15:26:00,55.6,21.0,25.78,SSW,202,5.1,11.0,24,0.00,,,0.00,Rainwise IP-100,2013-11-18 22:26:00,
2013-11-18 15:31:00,55.6,21.0,25.79,SSW,202,5.1,11.0,24,0.00,,,0.00,Rainwise IP-100,2013-11-18 22:31:00,
2013-11-18 15:36:00,55.5,21.0,25.78,SSW,202,4.4,11.0,24,0.00,,,0.00,Rainwise IP-100,2013-11-18 22:36:00,
2013-11-18 15:41:00,55.4,21.0,25.78,SSW,202,7.9,9.0,24,0.00,,,0.00,Rainwise IP-100,2013-11-18 22:41:00,
2013-11-18 15:46:00,55.3,21.0,25.78,SSW,202,5.1,8.0,24,0.00,,,0.00,Rainwise IP-100,2013-11-18 22:46:00,
2013-11-18 15:51:00,55.2,21.0,25.79,SSW,202,8.2,10.0,24,0.00,,,0.00,Rainwise IP-100,2013-11-18 22:51:00,
2013-11-18 15:56:00,55.0,21.0,25.78,SSW,202,4.2,9.0,24,0.00,,,0.00,Rainwise IP-100,2013-11-18 22:56:00,
2013-11-18 16:01:00,54.8,18.0,25.78,SSW,202,6.5,6.5,24,0.00,,,0.00,Rainwise IP-100,2013-11-18 23:01:00,
2013-11-18 16:06:00,54.6,18.0,25.78,South,180,6.8,7.0,24,0.00,,,0.00,Rainwise IP-100,2013-11-18 23:06:00,
2013-11-18 16:11:00,54.3,21.0,25.77,SSW,202,4.2,7.0,25,0.00,,,0.00,Rainwise IP-100,2013-11-18 23:11:00,
2013-11-18 16:16:00,53.9,21.0,25.78,South,180,4.0,6.0,25,0.00,,,0.00,Rainwise IP-100,2013-11-18 23:16:00,
2013-11-18 16:21:00,53.4,18.0,25.77,SSW,202,3.5,6.0,25,0.00,,,0.00,Rainwise IP-100,2013-11-18 23:21:00,
2013-11-18 16:26:00,53.0,18.0,25.77,SSW,202,4.2,6.0,25,0.00,,,0.00,Rainwise IP-100,2013-11-18 23:26:00,
2013-11-18 16:31:00,52.5,18.0,25.77,SSW,202,3.7,7.0,26,0.00,,,0.00,Rainwise IP-100,2013-11-18 23:31:00,
2013-11-18 16:36:00,51.8,18.0,25.77,SSW,202,4.0,6.0,26,0.00,,,0.00,Rainwise IP-100,2013-11-18 23:36:00,
2013-11-18 16:41:00,51.3,18.0,25.78,South,180,2.3,5.0,26,0.00,,,0.00,Rainwise IP-100,2013-11-18 23:41:00,
2013-11-18 16:46:00,51.0,18.0,25.78,SSW,202,2.6,4.0,27,0.00,,,0.00,Rainwise IP-100,2013-11-18 23:46:00,
2013-11-18 16:51:00,50.7,18.0,25.77,SSW,202,2.8,3.0,27,0.00,,,0.00,Rainwise IP-100,2013-11-18 23:51:00,
2013-11-18 16:56:00,50.6,18.0,25.77,SSW,202,3.5,4.0,27,0.00,,,0.00,Rainwise IP-100,2013-11-18 23:56:00,
2013-11-18 17:01:00,50.5,18.0,25.77,SSW,202,3.5,4.0,27,0.00,,,0.00,Rainwise IP-100,2013-11-19 00:01:00,
2013-11-18 17:06:00,50.4,18.0,25.78,SSW,202,4.2,4.2,27,0.00,,,0.00,Rainwise IP-100,2013-11-19 00:06:00,
2013-11-18 17:11:00,50.3,18.0,25.77,SSW,202,1.2,4.0,27,0.00,,,0.00,Rainwise IP-100,2013-11-19 00:11:00,
2013-11-18 17:16:00,49.8,18.0,25.77,South,180,3.7,4.0,27,0.00,,,0.00,Rainwise IP-100,2013-11-19 00:16:00,
2013-11-18 17:21:00,49.1,16.0,25.77,South,180,1.9,4.0,27,0.00,,,0.00,Rainwise IP-100,2013-11-19 00:21:00,
2013-11-18 17:26:00,48.3,18.0,25.77,South,180,1.6,2.0,28,0.00,,,0.00,Rainwise IP-100,2013-11-19 00:26:00,
2013-11-18 17:31:00,47.7,16.0,25.78,SSW,202,2.6,2.6,28,0.00,,,0.00,Rainwise IP-100,2013-11-19 00:31:00,
2013-11-18 17:36:00,47.3,16.0,25.77,WSW,247,1.6,3.0,29,0.00,,,0.00,Rainwise IP-100,2013-11-19 00:36:00,
2013-11-18 17:41:00,46.3,16.0,25.78,South,180,0.0,1.0,29,0.00,,,0.00,Rainwise IP-100,2013-11-19 00:41:00,
2013-11-18 17:46:00,45.1,16.0,25.78,South,180,0.0,0.0,30,0.00,,,0.00,Rainwise IP-100,2013-11-19 00:46:00,
2013-11-18 17:51:00,44.3,16.0,25.78,South,180,0.0,0.0,31,0.00,,,0.00,Rainwise IP-100,2013-11-19 00:51:00,
2013-11-18 17:56:00,43.9,16.0,25.78,South,180,0.0,1.0,32,0.00,,,0.00,Rainwise IP-100,2013-11-19 00:56:00,
2013-11-18 18:01:00,43.8,16.0,25.78,NW,315,3.5,4.0,32,0.00,,,0.00,Rainwise IP-100,2013-11-19 01:01:00,
2013-11-18 18:06:00,43.7,16.0,25.78,NW,315,1.2,5.0,32,0.00,,,0.00,Rainwise IP-100,2013-11-19 01:06:00,
2013-11-18 18:11:00,43.2,16.0,25.78,NW,315,0.0,1.0,33,0.00,,,0.00,Rainwise IP-100,2013-11-19 01:11:00,
2013-11-18 18:16:00,43.1,16.0,25.78,SSE,157,0.0,1.0,33,0.00,,,0.00,Rainwise IP-100,2013-11-19 01:16:00,
2013-11-18 18:21:00,43.3,16.0,25.77,South,180,2.6,3.0,33,0.00,,,0.00,Rainwise IP-100,2013-11-19 01:21:00,
2013-11-18 18:26:00,43.5,16.0,25.78,SSE,157,4.0,6.0,32,0.00,,,0.00,Rainwise IP-100,2013-11-19 01:26:00,
2013-11-18 18:31:00,43.6,16.0,25.78,SSE,157,3.0,5.0,32,0.00,,,0.00,Rainwise IP-100,2013-11-19 01:31:00,
2013-11-18 18:36:00,43.3,16.0,25.78,SSE,157,6.5,6.5,32,0.00,,,0.00,Rainwise IP-100,2013-11-19 01:36:00,
2013-11-18 18:41:00,42.9,16.0,25.77,SSE,157,4.7,6.0,32,0.00,,,0.00,Rainwise IP-100,2013-11-19 01:41:00,
2013-11-18 18:44:00,42.5,16.0,25.77,SSE,157,4.9,5.0,32,0.00,,,0.00,Rainwise IP-100,2013-11-19 01:44:00,
2013-11-18 18:49:00,41.8,16.0,25.77,SSE,157,4.4,5.0,33,0.00,,,0.00,Rainwise IP-100,2013-11-19 01:49:00,
2013-11-18 18:54:00,41.1,16.0,25.77,SSE,157,1.6,5.0,33,0.00,,,0.00,Rainwise IP-100,2013-11-19 01:54:00,
2013-11-18 18:59:00,40.4,16.0,25.77,SSE,157,4.2,5.0,34,0.00,,,0.00,Rainwise IP-100,2013-11-19 01:59:00,
2013-11-18 19:04:00,39.7,16.0,25.77,SSE,157,3.5,5.0,34,0.00,,,0.00,Rainwise IP-100,2013-11-19 02:04:00,
2013-11-18 19:09:00,39.3,14.0,25.76,SSE,157,3.7,5.0,35,0.00,,,0.00,Rainwise IP-100,2013-11-19 02:09:00,
2013-11-18 19:14:00,38.8,14.0,25.77,SSE,157,0.0,5.0,35,0.00,,,0.00,Rainwise IP-100,2013-11-19 02:14:00,
2013-11-18 19:19:00,38.3,14.0,25.77,South,180,1.2,3.0,36,0.00,,,0.00,Rainwise IP-100,2013-11-19 02:19:00,
2013-11-18 19:24:00,37.9,16.0,25.77,South,180,1.6,3.0,37,0.00,,,0.00,Rainwise IP-100,2013-11-19 02:24:00,
2013-11-18 19:29:00,37.5,16.0,25.77,SSW,202,1.6,2.0,37,0.00,,,0.00,Rainwise IP-100,2013-11-19 02:29:00,
2013-11-18 19:34:00,37.2,14.0,25.77,SSE,157,2.8,4.0,38,0.00,,,0.00,Rainwise IP-100,2013-11-19 02:34:00,
2013-11-18 19:39:00,37.1,14.0,25.77,South,180,3.0,5.0,38,0.00,,,0.00,Rainwise IP-100,2013-11-19 02:39:00,
2013-11-18 19:44:00,36.9,14.0,25.77,SSE,157,4.4,6.0,38,0.00,,,0.00,Rainwise IP-100,2013-11-19 02:44:00,
2013-11-18 19:49:00,36.8,16.0,25.77,SSE,157,2.3,5.0,39,0.00,,,0.00,Rainwise IP-100,2013-11-19 02:49:00,
2013-11-18 19:54:00,36.6,16.0,25.77,SSE,157,1.4,2.0,39,0.00,,,0.00,Rainwise IP-100,2013-11-19 02:54:00,
2013-11-18 19:59:00,36.2,14.0,25.77,SSE,157,1.2,3.0,39,0.00,,,0.00,Rainwise IP-100,2013-11-19 02:59:00,
2013-11-18 20:04:00,35.8,14.0,25.77,SSE,157,1.4,2.0,39,0.00,,,0.00,Rainwise IP-100,2013-11-19 03:04:00,
2013-11-18 20:09:00,35.5,14.0,25.77,South,180,2.6,3.0,40,0.00,,,0.00,Rainwise IP-100,2013-11-19 03:09:00,
2013-11-18 20:14:00,35.3,14.0,25.77,South,180,0.0,2.0,40,0.00,,,0.00,Rainwise IP-100,2013-11-19 03:14:00,
2013-11-18 20:19:00,35.2,14.0,25.77,SSW,202,1.4,2.0,41,0.00,,,0.00,Rainwise IP-100,2013-11-19 03:19:00,
2013-11-18 20:24:00,35.1,14.0,25.77,SSW,202,1.9,2.0,41,0.00,,,0.00,Rainwise IP-100,2013-11-19 03:24:00,
2013-11-18 20:29:00,35.0,14.0,25.77,SSW,202,1.2,3.0,41,0.00,,,0.00,Rainwise IP-100,2013-11-19 03:29:00,
2013-11-18 20:34:00,34.9,14.0,25.77,SSW,202,1.4,2.0,41,0.00,,,0.00,Rainwise IP-100,2013-11-19 03:34:00,
2013-11-18 20:39:00,34.7,14.0,25.77,SSW,202,1.9,2.0,41,0.00,,,0.00,Rainwise IP-100,2013-11-19 03:39:00,
2013-11-18 20:44:00,34.6,14.0,25.77,SSW,202,0.0,2.0,42,0.00,,,0.00,Rainwise IP-100,2013-11-19 03:44:00,
2013-11-18 20:49:00,34.1,14.0,25.78,NNW,337,4.0,4.0,42,0.00,,,0.00,Rainwise IP-100,2013-11-19 03:49:00,
2013-11-18 20:54:00,33.4,14.0,25.77,NNW,337,3.3,4.0,43,0.00,,,0.00,Rainwise IP-100,2013-11-19 03:54:00,
2013-11-18 20:59:00,33.3,14.0,25.78,North,360,2.6,3.0,43,0.00,,,0.00,Rainwise IP-100,2013-11-19 03:59:00,
2013-11-18 21:04:00,33.8,16.0,25.78,ENE,67,4.2,5.0,43,0.00,,,0.00,Rainwise IP-100,2013-11-19 04:04:00,
2013-11-18 21:07:00,34.1,16.0,25.77,ESE,112,1.6,5.0,43,0.00,,,0.00,Rainwise IP-100,2013-11-19 04:07:00,
2013-11-18 21:12:00,34.1,16.0,25.77,ESE,112,2.3,3.0,43,0.00,,,0.00,Rainwise IP-100,2013-11-19 04:12:00,
2013-11-18 21:17:00,33.9,16.0,25.77,ESE,112,2.1,3.0,43,0.00,,,0.00,Rainwise IP-100,2013-11-19 04:17:00,
2013-11-18 21:22:00,33.9,16.0,25.77,ESE,112,2.6,2.6,43,0.00,,,0.00,Rainwise IP-100,2013-11-19 04:22:00,
2013-11-18 21:27:00,34.0,16.0,25.77,ESE,112,3.0,3.0,44,0.00,,,0.00,Rainwise IP-100,2013-11-19 04:27:00,
2013-11-18 21:32:00,33.8,16.0,25.77,East,90,4.2,4.2,44,0.00,,,0.00,Rainwise IP-100,2013-11-19 04:32:00,
2013-11-18 21:37:00,33.2,14.0,25.77,East,90,4.9,5.0,44,0.00,,,0.00,Rainwise IP-100,2013-11-19 04:37:00,
2013-11-18 21:42:00,32.3,14.0,25.77,East,90,4.2,4.2,44,0.00,,,0.00,Rainwise IP-100,2013-11-19 04:42:00,
2013-11-18 21:47:00,31.8,14.0,25.77,ENE,67,4.0,4.0,45,0.00,,,0.00,Rainwise IP-100,2013-11-19 04:47:00,
2013-11-18 21:52:00,31.5,14.0,25.77,NE,45,2.8,4.0,46,0.00,,,0.00,Rainwise IP-100,2013-11-19 04:52:00,
2013-11-18 21:57:00,31.4,14.0,25.76,East,90,2.6,3.0,46,0.00,,,0.00,Rainwise IP-100,2013-11-19 04:57:00,
2013-11-18 22:01:00,31.5,14.0,25.76,ESE,112,1.9,3.0,47,0.00,,,0.00,Rainwise IP-100,2013-11-19 05:01:00,
2013-11-18 22:06:00,31.9,14.0,25.76,ESE,112,0.0,3.0,47,0.00,,,0.00,Rainwise IP-100,2013-11-19 05:06:00,
2013-11-18 22:11:00,31.9,14.0,25.77,ESE,112,0.0,0.0,47,0.00,,,0.00,Rainwise IP-100,2013-11-19 05:11:00,
2013-11-18 22:16:00,31.1,14.0,25.76,ESE,112,0.0,0.0,47,0.00,,,0.00,Rainwise IP-100,2013-11-19 05:16:00,
2013-11-18 22:21:00,29.9,14.0,25.76,ESE,112,0.0,0.0,47,0.00,,,0.00,Rainwise IP-100,2013-11-19 05:21:00,
2013-11-18 22:26:00,28.9,14.0,25.76,ESE,112,0.0,0.0,49,0.00,,,0.00,Rainwise IP-100,2013-11-19 05:26:00,
2013-11-18 22:31:00,28.4,14.0,25.76,ESE,112,0.0,0.0,51,0.00,,,0.00,Rainwise IP-100,2013-11-19 05:31:00,
2013-11-18 22:36:00,28.6,14.0,25.76,ENE,67,0.0,0.0,51,0.00,,,0.00,Rainwise IP-100,2013-11-19 05:36:00,
2013-11-18 22:41:00,29.2,14.0,25.76,ENE,67,0.0,0.0,50,0.00,,,0.00,Rainwise IP-100,2013-11-19 05:41:00,
2013-11-18 22:46:00,29.0,14.0,25.76,NNE,22,3.5,3.5,49,0.00,,,0.00,Rainwise IP-100,2013-11-19 05:46:00,
2013-11-18 22:51:00,27.7,11.0,25.76,North,360,4.4,4.4,49,0.00,,,0.00,Rainwise IP-100,2013-11-19 05:51:00,
2013-11-18 22:56:00,26.9,14.0,25.76,North,360,4.7,5.0,51,0.00,,,0.00,Rainwise IP-100,2013-11-19 05:56:00,
2013-11-18 23:01:00,26.9,14.0,25.76,North,360,3.0,4.0,53,0.00,,,0.00,Rainwise IP-100,2013-11-19 06:01:00,
2013-11-18 23:06:00,26.7,14.0,25.76,North,360,3.0,3.0,53,0.00,,,0.00,Rainwise IP-100,2013-11-19 06:06:00,
2013-11-18 23:11:00,26.8,14.0,25.76,North,360,2.1,3.0,53,0.00,,,0.00,Rainwise IP-100,2013-11-19 06:11:00,
2013-11-18 23:16:00,27.3,14.0,25.75,North,360,0.0,2.0,54,0.00,,,0.00,Rainwise IP-100,2013-11-19 06:16:00,
2013-11-18 23:21:00,27.0,14.0,25.75,North,360,2.8,2.8,53,0.00,,,0.00,Rainwise IP-100,2013-11-19 06:21:00,
2013-11-18 23:26:00,26.6,14.0,25.75,North,360,3.3,3.3,53,0.00,,,0.00,Rainwise IP-100,2013-11-19 06:26:00,
2013-11-18 23:31:00,26.4,14.0,25.75,North,360,3.7,4.0,54,0.00,,,0.00,Rainwise IP-100,2013-11-19 06:31:00,
2013-11-18 23:36:00,25.7,14.0,25.75,NNW,337,5.8,6.0,54,0.00,,,0.00,Rainwise IP-100,2013-11-19 06:36:00,
2013-11-18 23:41:00,24.8,14.0,25.75,NNW,337,4.4,6.0,55,0.00,,,0.00,Rainwise IP-100,2013-11-19 06:41:00,
2013-11-18 23:46:00,24.2,11.0,25.75,NNW,337,3.7,5.0,56,0.00,,,0.00,Rainwise IP-100,2013-11-19 06:46:00,
2013-11-18 23:51:00,24.7,14.0,25.74,NNW,337,3.0,4.0,57,0.00,,,0.00,Rainwise IP-100,2013-11-19 06:51:00,
2013-11-18 23:56:00,25.6,14.0,25.74,NNW,337,3.5,4.0,57,0.00,,,0.00,Rainwise IP-100,2013-11-19 06:56:00,